Temperature
27 27 27 28 29 30 30 30 30 31 33 33 32 31 32 32 31 29 28 26 26 26 25 25 24 24 23 22 21 21 20 20 20 20 19 19 19 19 19 19 19 19 19 18
27 27 28 30 29 29 29 28 29 30 32 32 31 31 32 32 31 30 29 27 26 25 24 25 24 24 23 22 21 21 21 20 20 20 20 19 19 19 19 19 19 19 19 18
27 28 29 28 28 28 28 28 28 29 31 31 30 29 30 31 31 30 29 28 26 25 24 24 24 23 23 22 21 21 20 20 20 20 20 19 19 19 19 19 19 19 18 18
27 28 28 27 27 28 27 29 29 29 29 29 30 28 29 30 30 30 29 28 26 25 23 23 23 23 23 22 21 21 20 20 20 19 19 19 19 18 19 18 18 18 18 18
26 27 27 27 27 28 28 29 28 28 28 28 28 28 29 31 30 29 28 26 24 22 21 21 21 21 21 21 21 20 20 20 19 19 19 19 18 18 18 18 18 18 17 17
26 27 27 27 28 28 28 28 27 27 27 25 27 27 27 29 29 27 24 22 20 19 19 19 19 19 20 20 20 19 19 19 19 19 18 18 18 18 18 17 17 17 17 16
25 26 28 28 27 27 27 26 24 24 25 25 27 27 27 27 26 24 21 18 17 17 17 17 17 18 18 18 18 18 18 18 18 18 18 18 18 17 17 17 17 17 16 16
24 24 26 26 26 25 26 25 23 22 23 25 27 25 23 23 22 20 18 17 16 16 16 16 16 16 17 17 17 17 17 17 17 17 17 17 17 17 16 16 16 16 16 16
24 24 26 26 26 26 25 25 25 23 23 22 24 24 22 21 20 19 17 16 15 15 15 15 15 16 16 16 16 16 16 16 16 16 16 16 16 16 16 16 16 16 15 15
25 23 25 26 26 25 25 24 23 21 20 20 22 24 22 20 18 17 17 16 15 15 15 15 15 15 15 15 15 16 16 16 16 15 15 15 15 16 16 15 15 15 15 15
25 23 23 24 24 23 22 21 19 18 19 18 19 21 20 19 18 16 16 15 15 15 15 15 15 15 15 15 15 15 15 15 15 15 15 15 15 15 14 14 14 14 14 14
24 23 22 23 24 24 21 19 17 15 16 16 16 18 19 18 17 16 15 15 15 15 15 15 15 15 15 14 14 14 14 14 14 14 14 14 14 14 14 14 14 13 13 13
23 21 20 22 22 22 21 20 19 16 15 15 15 17 18 18 17 16 15 15 14 14 14 14 14 14 14 14 14 14 14 14 14 14 14 14 13 13 13 13 13 13 12 12
22 21 20 20 21 22 21 21 20 18 16 16 16 17 17 17 16 15 15 14 14 14 14 13 13 13 13 13 13 13 13 13 13 13 13 13 13 13 12 12 12 12 12 12
23 21 21 22 22 23 22 22 22 20 19 17 17 17 17 17 16 16 15 14 14 13 13 13 12 12 12 13 13 13 13 13 13 13 13 12 12 12 12 12 12 12 12 12
23 21 21 21 22 22 22 22 22 21 20 19 18 17 17 16 16 15 14 14 14 13 12 12 12 12 12 12 12 12 12 12 12 12 12 12 12 12 12 12 11 11 11 11
22 21 20 20 21 21 21 21 21 20 20 19 17 17 17 16 16 15 14 14 13 13 12 12 11 12 12 12 12 12 12 12 12 11 11 11 11 11 11 11 11 11 11 11
20 20 20 20 20 19 21 22 21 21 20 20 19 18 17 17 16 15 15 14 14 13 12 12 11 11 11 11 11 11 11 11 11 11 11 11 11 11 11 11 11 11 11 11
22 20 20 20 20 20 21 21 21 20 20 20 19 19 18 17 16 15 15 14 13 13 13 12 12 12 11 11 11 11 11 11 11 11 11 10 10 10 10 10 10 10 10 10
22 21 19 20 19 19 21 22 21 20 19 20 20 19 19 18 16 15 15 14 14 13 12 12 12 11 11 11 11 11 11 11 11 10 10 10 10 10 10 10 10 10 10 10
21 20 20 20 20 21 22 22 21 19 18 19 19 19 19 18 16 15 14 14 13 13 12 12 12 11 11 11 11 11 11 11 10 10 10 10 10 10 10 10 10 9 9 9
22 21 21 21 20 20 21 21 20 19 18 19 19 19 18 17 16 15 14 14 13 13 12 12 12 11 11 11 11 10 10 10 10 10 10 10 10 9 9 9 9 9 9 9
22 22 21 21 21 21 21 21 20 19 19 19 19 19 18 17 16 15 14 14 13 13 12 12 12 11 11 10 10 10 10 10 10 10 9 9 9 9 9 9 9 9 9 9
22 23 21 20 21 21 21 21 20 20 19 19 19 18 18 17 16 15 14 14 13 13 12 12 12 11 10 10 10 10 10 10 9 9 9 9 9 9 9 9 9 8 8 8
21 21 21 20 21 21 21 20 20 20 19 19 18 18 18 17 16 16 15 14 13 12 12 12 11 11 10 10 10 10 10 10 9 9 9 9 9 9 9 9 9 8 8 8
21 21 20 20 21 21 21 21 20 20 19 19 18 18 17 17 16 16 15 14 13 12 12 11 11 11 10 10 10 10 10 10 10 10 10 10 9 9 9 9 9 9 9 9
Wind_Speed
8 10 12 13 16 16 17 16 15 14 16 16 16 15 13 11 11 11 10 8 7 8 12 12 13 13 13 11 11 10 10 9 7 7 7 6 5 3 2 2 2 3 4 4
8 12 14 10 8 9 12 14 16 16 13 8 10 13 14 12 13 9 9 11 11 8 7 10 10 10 12 12 11 10 9 9 9 7 6 4 4 3 4 4 3 4 5 5
12 7 3 5 9 12 13 15 17 17 16 13 12 15 18 17 13 10 8 6 8 9 7 8 9 9 10 11 11 11 10 9 9 8 6 5 4 4 5 6 5 5 6 5
10 9 5 8 11 14 15 14 16 17 17 15 15 16 18 20 17 15 12 9 7 5 5 3 3 4 5 8 9 8 8 8 8 7 7 8 7 7 7 5 5 5 5 5
7 8 9 10 12 13 14 12 12 13 14 17 18 16 17 18 20 18 14 9 6 7 7 7 6 4 2 3 5 7 6 6 6 6 6 6 7 5 4 4 4 5 5 5
12 10 11 11 10 11 11 12 13 13 14 19 20 20 19 17 10 11 13 13 11 9 10 10 10 9 7 5 4 4 5 4 4 4 4 4 4 3 3 3 3 3 3 4
11 13 13 13 13 12 12 12 12 15 17 20 20 20 13 3 10 18 18 14 11 9 9 9 9 8 7 7 6 5 5 5 4 4 3 2 1 1 2 2 2 2 2 3
12 11 7 8 12 13 12 13 12 13 17 17 13 8 4 13 14 15 15 13 11 8 6 7 7 6 6 5 4 4 5 5 5 5 5 4 3 1 2 2 2 1 2 2
8 9 6 7 9 12 14 14 16 16 20 21 18 11 5 8 10 11 12 11 9 7 5 5 6 5 5 5 4 4 5 5 5 6 5 5 5 5 4 4 3 3 3 2
9 14 15 10 9 12 11 13 10 9 10 16 19 21 6 10 11 9 9 9 7 6 5 5 4 3 3 3 4 5 5 5 5 4 3 5 5 5 5 5 5 5 4 4
9 11 14 12 9 11 7 6 7 8 7 8 11 7 5 5 9 11 10 7 4 4 5 4 3 3 2 3 4 4 4 4 4 4 5 5 4 4 5 5 5 4 4 4
9 8 10 13 11 3 2 3 3 3 7 6 8 5 5 7 8 9 10 8 6 4 4 5 4 4 4 4 4 4 3 3 3 3 3 4 4 3 4 5 4 4 3 4
7 6 10 11 4 2 3 4 4 3 4 7 8 7 1 3 7 7 7 7 5 3 4 5 5 6 6 5 5 4 3 2 2 2 2 3 3 4 4 4 3 3 4 4
4 9 12 14 14 15 12 12 10 7 7 10 12 14 9 5 4 6 7 6 5 3 3 3 4 4 4 5 5 4 3 3 2 1 1 2 2 2 3 3 3 3 4 4
4 9 12 14 16 17 17 16 14 11 11 11 14 15 10 7 8 8 8 7 6 5 3 2 2 3 3 3 3 3 3 3 3 2 2 2 2 2 2 2 3 3 4 4
4 8 12 16 16 16 16 15 13 11 10 11 12 10 1 4 5 6 7 7 6 5 4 3 1 1 3 4 4 3 2 3 2 3 3 3 3 3 3 2 1 2 3 4
8 10 12 14 15 14 12 8 6 8 8 8 7 4 3 5 6 7 7 6 6 5 4 3 2 2 2 3 3 3 1 1 1 2 3 4 3 3 2 2 3 3 4 4
7 9 9 13 13 11 6 2 5 7 7 5 2 2 4 4 5 5 6 6 6 5 5 5 4 3 3 3 3 3 2 1 1 1 2 3 3 2 3 3 4 4 4 4
7 6 8 10 11 10 6 2 3 6 8 3 1 1 2 4 5 6 8 7 6 6 5 5 5 5 4 4 3 3 2 2 2 2 2 3 3 2 2 3 3 3 4 4
9 8 8 10 12 11 6 3 1 5 5 2 1 2 3 4 5 3 8 7 6 5 4 5 5 4 3 3 2 2 2 2 2 3 3 3 2 2 2 2 2 2 2 3
11 11 13 13 14 10 3 4 3 6 0 1 4 4 3 3 2 6 9 7 5 5 5 5 5 3 2 2 2 2 2 3 3 3 4 3 3 2 2 2 2 1 2 3
9 10 11 12 12 6 4 2 4 2 2 5 6 5 2 3 7 8 7 6 5 6 6 5 4 3 2 1 2 2 4 4 4 3 3 3 2 2 4 4 3 3 3 3
9 9 7 7 6 3 3 5 5 3 5 6 6 5 4 5 7 7 7 6 5 5 4 4 4 4 3 3 2 4 4 4 3 3 3 3 3 4 4 3 3 3 3 3
9 7 8 8 9 9 9 7 6 7 7 7 7 6 5 6 6 7 7 7 6 5 5 5 4 4 4 4 4 4 5 4 3 3 3 3 3 4 4 3 3 3 3 3
14 10 9 11 12 13 14 12 11 10 9 9 9 8 6 7 7 8 8 8 6 5 5 4 4 4 5 5 5 5 5 4 3 3 3 3 4 4 4 4 4 4 4 3
15 13 12 12 10 10 9 9 10 10 11 10 10 9 8 8 8 8 8 9 8 8 7 6 6 6 6 7 6 5 5 5 4 4 4 4 4 5 5 6 5 5 4 4
Wind_Direction
212 241 239 235 234 250 274 292 290 267 249 220 219 236 232 202 200 194 177 179 174 184 182 181 179 174 169 162 161 173 186 179 170 174 186 194 205 205 206 212 212 209 209 221
225 238 250 271 301 299 289 282 284 289 280 250 233 246 254 226 212 199 176 166 172 179 186 167 175 173 170 167 169 177 188 182 180 185 186 187 191 203 218 227 221 221 218 224
249 280 307 291 279 269 266 264 266 272 274 255 240 248 257 255 221 194 185 164 161 158 167 170 173 178 176 176 181 192 191 187 189 188 184 192 187 210 216 217 217 218 221 218
268 274 276 271 263 256 259 259 262 266 270 264 247 244 237 240 226 205 195 190 172 139 136 142 162 166 172 176 182 183 187 191 190 188 196 201 207 216 221 218 215 209 214 220
268 287 272 257 262 270 274 297 304 283 274 273 266 261 255 241 225 208 188 165 125 90 77 53 34 35 68 131 155 170 176 184 187 191 203 211 226 232 233 215 216 206 206 218
268 264 268 272 274 275 282 291 289 279 270 260 257 261 261 264 243 154 118 98 76 60 55 43 32 29 37 44 76 112 131 141 156 175 188 207 231 242 254 233 221 219 223 220
280 272 265 264 264 262 262 264 266 258 248 251 250 250 263 345 103 120 118 105 89 59 49 45 40 35 38 45 56 88 106 110 119 130 129 134 132 232 258 270 261 255 263 252
280 283 291 277 271 278 273 267 263 268 270 272 268 268 16 64 75 90 97 100 95 85 65 54 48 43 38 44 55 81 98 102 100 97 87 77 68 55 60 49 13 2 338 321
285 288 298 289 282 278 280 270 270 272 274 276 274 261 175 116 99 101 102 98 95 93 82 65 52 43 33 34 41 65 86 90 89 92 94 82 65 54 56 55 51 47 32 19
285 290 293 290 280 277 298 303 288 269 268 264 262 259 237 164 136 117 109 108 112 111 101 87 70 52 37 32 40 58 70 84 92 97 104 99 85 74 66 61 61 51 39 33
300 295 295 294 281 283 312 326 340 319 281 273 268 266 51 97 129 130 124 117 111 110 103 91 82 64 47 44 45 57 77 85 86 85 78 84 88 94 88 74 62 52 31 359
313 306 298 291 298 329 336 338 7 315 306 303 293 286 55 87 111 129 133 133 129 108 83 73 58 43 40 34 34 48 64 79 83 82 89 90 80 73 85 86 68 48 31 2
337 306 295 290 277 11 301 275 245 212 263 275 277 281 354 104 117 127 134 135 137 125 92 69 51 35 26 25 23 22 35 48 60 75 94 104 101 89 78 78 67 38 25 19
287 273 280 289 296 303 288 272 249 231 245 266 268 280 276 247 178 156 158 159 158 149 112 83 62 40 19 13 11 6 15 23 13 29 87 94 92 106 106 90 63 39 22 21
254 282 290 292 294 294 294 293 283 267 261 265 281 290 288 236 209 181 172 178 181 176 158 118 64 27 1 2 355 2 4 8 359 13 53 77 87 98 98 86 63 38 4 22
287 288 294 292 293 296 293 292 293 294 294 286 292 303 330 138 155 162 181 192 193 188 183 173 163 342 355 351 349 357 7 13 14 36 54 62 61 72 66 48 46 33 25 26
285 293 294 291 298 299 293 309 314 310 308 305 303 296 181 170 176 180 192 201 198 194 193 196 210 261 301 315 333 331 348 29 44 55 58 57 49 55 47 19 39 39 31 32
264 287 286 282 290 285 297 323 303 304 308 310 307 191 187 181 173 173 181 192 196 198 199 202 217 240 265 282 287 287 259 178 140 112 90 79 60 52 45 45 46 36 29 29
209 259 283 286 286 292 299 246 300 317 307 319 291 201 183 156 177 187 185 182 187 197 199 202 217 229 236 251 261 267 244 194 164 114 83 73 60 56 61 69 60 43 40 34
195 211 248 272 288 291 291 140 350 294 278 29 325 250 224 211 243 214 173 173 176 186 189 210 226 231 235 238 234 240 215 170 140 110 95 78 61 55 61 82 73 57 48 44
211 223 238 259 273 283 89 114 276 283 194 332 306 290 257 231 135 138 154 164 170 191 204 223 237 231 228 237 227 212 160 126 114 100 92 94 91 97 90 81 83 91 80 65
260 267 267 267 268 277 81 315 324 69 176 269 287 283 246 153 142 154 161 164 185 199 208 218 221 205 189 193 186 145 120 116 113 105 99 97 87 72 93 98 89 85 96 91
249 248 271 290 309 352 288 292 293 257 257 270 273 267 227 194 177 173 167 175 200 201 201 217 209 189 174 165 149 137 130 134 131 120 113 110 104 87 84 95 98 90 90 93
287 240 238 257 272 286 292 276 253 248 248 261 266 259 230 209 194 179 175 182 191 191 194 214 209 179 163 154 141 135 142 147 143 139 131 131 122 115 100 88 91 90 81 87
291 293 269 257 256 262 267 267 254 239 232 241 253 249 229 214 205 190 183 177 178 183 190 198 186 170 159 156 151 148 146 147 150 154 155 147 131 121 118 101 74 81 84 88
272 275 273 276 284 275 274 278 271 240 221 222 238 245 225 214 205 196 183 172 176 178 178 185 177 168 160 158 158 155 157 164 169 165 164 159 152 153 148 142 133 61 90 120
Height
1486 1486 1482 1476 1471 1470 1467 1467 1465 1455 1446 1449 1457 1460 1458 1459 1463 1466 1470 1474 1476 1481 1485 1490 1495 1499 1504 1507 1510 1513 1516 1519 1521 1523 1525 1527 1529 1531 1532 1533 1534 1534 1534 1535
1483 1482 1474 1468 1469 1471 1472 1475 1471 1459 1449 1450 1457 1460 1457 1458 1461 1464 1468 1472 1475 1481 1482 1486 1492 1497 1501 1504 1507 1510 1513 1516 1518 1520 1522 1524 1526 1527 1529 1530 1530 1530 1531 1531
1482 1474 1470 1473 1476 1478 1477 1477 1473 1468 1456 1453 1461 1468 1464 1457 1458 1463 1467 1472 1476 1480 1483 1487 1490 1495 1499 1501 1504 1507 1510 1512 1515 1517 1519 1521 1522 1523 1524 1525 1526 1526 1527 1527
1479 1473 1476 1478 1478 1475 1477 1466 1465 1465 1467 1467 1463 1477 1464 1456 1455 1458 1464 1470 1475 1479 1483 1487 1489 1492 1496 1498 1501 1504 1506 1508 1511 1513 1515 1517 1518 1519 1521 1522 1522 1522 1522 1522
1481 1477 1477 1479 1476 1471 1470 1464 1466 1466 1469 1472 1465 1471 1462 1448 1451 1453 1460 1468 1475 1480 1482 1485 1488 1490 1493 1496 1498 1500 1502 1505 1507 1509 1511 1513 1515 1516 1518 1518 1518 1518 1518 1518
1478 1477 1475 1473 1471 1470 1469 1471 1472 1472 1474 1484 1472 1473 1468 1451 1445 1451 1463 1472 1479 1482 1483 1486 1488 1490 1492 1494 1496 1498 1499 1501 1504 1506 1508 1510 1512 1513 1514 1515 1515 1515 1515 1515
1484 1476 1472 1472 1474 1473 1473 1483 1493 1493 1488 1481 1463 1465 1462 1452 1449 1455 1465 1474 1480 1484 1486 1488 1490 1491 1492 1494 1495 1496 1498 1499 1501 1503 1505 1507 1508 1509 1510 1511 1512 1512 1512 1512
1492 1488 1476 1474 1476 1478 1476 1481 1498 1507 1494 1475 1460 1467 1473 1466 1466 1469 1474 1479 1483 1487 1489 1491 1491 1492 1493 1495 1496 1496 1497 1498 1500 1501 1503 1504 1506 1507 1508 1508 1509 1509 1509 1509
1489 1487 1474 1474 1474 1476 1480 1479 1474 1484 1486 1489 1475 1466 1473 1472 1475 1479 1482 1486 1489 1491 1492 1492 1492 1492 1494 1495 1496 1496 1497 1498 1499 1500 1502 1503 1504 1505 1506 1506 1507 1507 1507 1507
1481 1487 1477 1473 1474 1475 1477 1478 1480 1490 1502 1500 1481 1468 1472 1475 1478 1483 1484 1490 1494 1494 1493 1493 1493 1494 1495 1496 1496 1496 1497 1498 1499 1500 1502 1502 1503 1504 1504 1505 1505 1505 1505 1505
1479 1487 1484 1478 1480 1483 1486 1491 1497 1500 1497 1503 1498 1483 1476 1475 1478 1484 1487 1491 1493 1494 1494 1494 1494 1495 1496 1496 1497 1497 1497 1498 1499 1500 1501 1502 1503 1503 1504 1504 1504 1504 1504 1504
1481 1485 1490 1483 1475 1477 1485 1494 1503 1516 1513 1510 1509 1495 1478 1478 1479 1483 1487 1489 1493 1494 1494 1494 1495 1496 1497 1497 1497 1497 1498 1498 1499 1500 1501 1502 1503 1503 1504 1503 1503 1503 1503 1503
1486 1492 1498 1489 1485 1484 1488 1491 1496 1504 1511 1511 1511 1499 1482 1481 1482 1485 1489 1491 1493 1494 1494 1494 1495 1496 1497 1498 1498 1498 1498 1499 1500 1500 1501 1502 1502 1502 1502 1502 1502 1503 1503 1502
1488 1492 1497 1500 1490 1481 1482 1481 1484 1493 1503 1501 1497 1490 1485 1484 1485 1487 1489 1491 1493 1494 1494 1495 1495 1496 1497 1497 1498 1498 1498 1499 1499 1500 1500 1501 1501 1501 1502 1502 1502 1502 1502 1502
1484 1488 1485 1482 1477 1474 1474 1474 1475 1480 1484 1491 1487 1483 1480 1480 1483 1486 1489 1491 1493 1494 1494 1495 1495 1496 1496 1497 1497 1498 1498 1498 1498 1499 1499 1499 1500 1500 1501 1501 1501 1501 1501 1501
1481 1487 1486 1484 1475 1472 1472 1469 1469 1472 1475 1478 1479 1480 1477 1479 1483 1486 1489 1491 1492 1494 1494 1495 1495 1495 1495 1495 1496 1496 1497 1497 1497 1497 1498 1498 1499 1499 1500 1500 1500 1500 1501 1500
1482 1485 1488 1486 1475 1473 1476 1469 1470 1472 1471 1474 1480 1481 1478 1481 1483 1486 1488 1490 1492 1493 1493 1494 1494 1494 1493 1494 1494 1495 1495 1495 1496 1496 1497 1497 1498 1498 1499 1499 1499 1499 1500 1500
1485 1488 1487 1483 1480 1488 1472 1465 1466 1469 1469 1469 1472 1474 1477 1479 1482 1484 1487 1489 1490 1491 1492 1492 1492 1492 1492 1493 1493 1493 1494 1495 1495 1496 1496 1496 1496 1497 1497 1497 1498 1498 1498 1499
1477 1484 1485 1483 1480 1474 1466 1464 1465 1469 1470 1468 1470 1473 1475 1477 1480 1483 1485 1487 1488 1490 1491 1491 1492 1492 1492 1492 1492 1492 1493 1494 1494 1495 1495 1495 1495 1496 1496 1496 1496 1497 1497 1498
1472 1478 1484 1481 1485 1483 1465 1462 1464 1468 1471 1468 1469 1471 1473 1475 1479 1481 1483 1485 1487 1489 1490 1490 1490 1490 1490 1490 1491 1491 1492 1492 1493 1494 1494 1494 1494 1495 1495 1495 1495 1495 1496 1496
1472 1475 1478 1476 1475 1465 1457 1461 1464 1472 1474 1471 1470 1470 1471 1473 1477 1481 1482 1484 1486 1488 1488 1489 1489 1489 1489 1489 1489 1490 1490 1491 1492 1493 1493 1493 1494 1494 1494 1494 1494 1494 1495 1495
1464 1468 1468 1467 1471 1469 1461 1461 1464 1469 1470 1469 1469 1469 1470 1473 1476 1479 1481 1483 1485 1486 1487 1487 1487 1487 1487 1488 1488 1488 1489 1490 1491 1492 1492 1493 1493 1494 1494 1493 1494 1494 1494 1495
1458 1460 1461 1463 1464 1462 1461 1463 1465 1466 1467 1468 1468 1468 1469 1471 1474 1477 1479 1482 1483 1484 1485 1486 1486 1486 1486 1487 1487 1488 1488 1489 1490 1491 1491 1492 1492 1493 1493 1493 1493 1493 1494 1494
1453 1453 1456 1459 1457 1458 1458 1459 1461 1463 1464 1465 1466 1466 1467 1469 1472 1474 1477 1479 1481 1482 1483 1484 1485 1485 1485 1486 1487 1487 1488 1489 1490 1490 1491 1491 1492 1492 1493 1493 1493 1494 1494 1494
1455 1454 1453 1454 1454 1456 1456 1456 1457 1458 1460 1462 1463 1464 1465 1467 1469 1472 1474 1476 1479 1480 1481 1482 1483 1484 1484 1485 1486 1487 1488 1488 1489 1490 1490 1491 1492 1492 1493 1493 1493 1494 1494 1494
1453 1451 1451 1450 1449 1450 1450 1451 1451 1452 1454 1457 1460 1461 1462 1464 1467 1469 1471 1474 1476 1478 1480 1481 1482 1483 1484 1485 1486 1487 1488 1488 1489 1490 1491 1491 1492 1493 1494 1494 1494 1494 1494 1494